$B4QB,G/7nF|(B,2013.10/17,,,
$B4QB,<T(B,$B66K\?EG7Je(B,,,
$B4QB,COE@(B,B$B#1(B,"34""41'13.84   133""55'26.36",,
$B29EY7WHV9f(B,21,-1,,
$B;~9o(B,$B5$29(B,$BIw8~(B,$BIwB.(B,$BHw9M(B
15:00:00,21.3,$BKL@>(B,3,$BF|8~(B
15:01:00,21.7,$BKL@>(B,2,
15:02:00,21.3,$B@>(B,1,
15:03:00,20.8,$BKLEl(B,2,
15:04:00,20.5,$BKL(B,5,
15:05:00,20.5,$BKL(B,1,
15:06:00,20.7,$BKL(B,1,
15:07:00,21,$BKLEl(B,2,
15:08:00,21,$BKLEl(B,2,
15:09:00,21,$BKL@>(B,1,
15:10:00,21,$BKL(B,0,
15:11:00,20.8,$BKL(B,1,
15:12:00,20.9,$BKL(B,1,
15:13:00,20.9,$BKLEl(B,0,
15:14:00,20.8,$BFnEl(B,1,
15:15:00,21,$BKL@>(B,1,
15:16:00,20.5,$BKL@>(B,1,
15:17:00,20.2,$BEl(B,1,
15:18:00,20.3,$BFn@>(B,1,
15:19:00,20,$BKL@>(B,1,
15:20:00,19.8,-,0,
15:21:00,19.8,$BFn(B,3,
15:22:00,19.7,$BFn(B,1,
15:23:00,19.8,$BFn(B,1,
15:24:00,20,$BKL(B,1,
15:25:00,20,$BFnEl(B,1,
15:26:00,20,$BKL(B,1,
15:27:00,20.2,$BFn@>(B,1,
15:28:00,19.8,$BFnEl(B,2,
15:29:00,19.4,$B@>(B,1,
15:30:00,19.2,$BFn@>(B,2,
15:31:00,19.1,$BFn(B,1,
15:32:00,19.1,$BFn@>(B,1,
15:33:00,19.1,$BFn@>(B,1,
15:34:00,19.2,$B@>(B,1,
15:35:00,19.2,$BFn(B,3,
15:36:00,19.2,$BFn(B,1,
15:37:00,19.2,$BFn(B,1,
15:38:00,19.2,$BFnEl(B,1,
15:39:00,19.1,$BFnEl(B,1,
15:40:00,19.2,$BFnEl(B,2,
15:41:00,19.1,$BFn@>(B,1,
15:42:00,19.2,$BFnDE(B,2,
15:43:00,19.1,$B@>(B,1,
15:44:00,19.3,$B@>(B,1,
15:45:00,19.5,$B@>(B,1,
15:46:00,19.5,$BFn(B,1,
15:47:00,19.4,$BFn(B,1,
15:48:00,19.2,$B@>(B,1,
15:49:00,19.8,$B@>(B,1,
15:50:00,19.8,$BEl(B,1,
15:51:00,20,$BKL@>(B,1,
15:52:00,20.2,$BFn(B,1,
15:53:00,20,$BFn(B,3,
15:54:00,19.5,$B@>(B,1,
15:55:00,19.1,$B@>(B,3,
15:56:00,18.9,$BEl(B,2,
15:57:00,18.9,$B@>(B,2,
15:58:00,18.5,$BEl(B,1,
15:59:00,18.5,$BFnEl(B,1,
16:00:00,18.5,$BFnEl(B,2,
16:01:00,18.4,$BKL(B,2,
16:02:00,18.2,$BFnEl(B,2,
16:03:00,18.1,$BFn(B,1,
16:04:00,18.2,$BKL(B,1,
16:05:00,18.2,$BKL(B,1,
16:06:00,18.3,$BFn(B,1,
16:07:00,18.3,$BEl(B,1,
16:08:00,18.1,$BFn@>(B,1,
16:09:00,18.2,$BFn(B,1,
16:10:00,18,$BFn(B,2,
16:11:00,18,$BFnEl(B,1,
16:12:00,18,$BFn@>(B,1,
16:13:00,18,$BFnEl(B,1,
16:14:00,18,$BFn@>(B,1,
16:15:00,18.1,$BFn(B,1,
16:16:00,18.1,$BFn@>(B,1,
16:17:00,18.1,$BFnEl(B,1,
16:18:00,18,-,0,
16:19:00,18,-,0,
16:20:00,18,$BFn(B,2,
16:21:00,18,-,0,
16:22:00,17.9,$BEl(B,1,
16:23:00,17.9,-,0,
16:24:00,17.8,$BFn(B,1,
16:25:00,17.9,$BFn(B,2,
16:26:00,17.9,-,0,
16:27:00,17.9,-,0,
16:28:00,17.8,$BFn@>(B,1,
16:29:00,17.8,-,0,
16:30:00,17.8,-,0,
16:31:00,17.8,$BFn(B,1,
16:32:00,17.8,$BFnEl(B,1,
16:33:00,17.8,$BFnEl(B,3,
16:34:00,17.6,-,0,
16:35:00,17.6,-,0,
16:36:00,17.5,-,0,
16:37:00,17.5,-,0,
16:38:00,17.5,-,0,
16:39:00,17.5,$BFn@>(B,1,
16:40:00,17.5,$BFn@>(B,1,
16:41:00,17.4,-,0,
16:42:00,17.3,$BFn(B,1,
16:43:00,17.3,$BFn(B,1,
16:44:00,17.2,$BFn(B,1,
16:45:00,17.3,$BFn(B,1,
16:46:00,17.2,$BFn(B,1,
16:47:00,17.2,-,0,
16:48:00,17.1,-,0,
16:49:00,17.1,-,0,
16:50:00,17.1,-,0,
16:51:00,17.1,-,0,
16:52:00,17.1,-,0,
16:53:00,17.2,-,0,
16:54:00,17.1,-,0,
16:55:00,17.1,-,0,
16:56:00,17.1,-,0,
16:57:00,17.1,-,0,
16:58:00,17,-,0,
16:59:00,17,-,0,
17:00:00,17,-,0,